FW9094 Weather Reports


time (UTC)temp
C
wind
direction
speed
KPH
gust
KPH
rain 1hr
cm
rain 24hr
cm
rain mn
cm
humidity
%
barometer
mb
20260506182221 8 68 0.0 0.0 0.03 0.61 0.61 94 1009.8
20260506181212 8 68 0.0 1.6 0.03 0.61 0.61 94 1009.7
20260506180153 8 68 0.0 3.2 0.05 0.61 0.61 93 1009.6
20260506175129 8 68 0.0 3.2 0.05 0.61 0.61 93 1009.5
20260506174118 8 68 0.0 3.2 0.05 0.61 0.61 93 1009.5
20260506173110 8 68 0.0 3.2 0.08 0.61 0.61 93 1009.3
20260506171025 8 68 0.0 3.2 0.10 0.58 0.58 93 1009.3
20260506165956 8 68 0.0 3.2 0.13 0.56 0.56 92 1009.3
20260506164932 8 68 0.0 3.2 0.15 0.53 0.53 92 1009.3
20260506163923 8 68 0.0 3.2 0.15 0.51 0.51 92 1009.3
20260506162908 8 68 0.0 3.2 0.15 0.51 0.51 91 1009.3
20260506161835 8 68 1.6 4.8 0.15 0.48 0.48 89 1009.3
20260506160819 9 68 3.2 6.4 0.10 0.43 0.43 87 1009.4
20260506155815 9 45 3.2 8.0 0.08 0.43 0.43 85 1009.4
20260506154805 10 45 3.2 8.0 0.05 0.38 0.38 85 1009.5
20260506153754 10 68 4.8 14.5 0.05 0.36 0.36 84 1009.4
20260506152735 10 45 6.4 14.5 0.03 0.33 0.33 83 1009.3
20260506151714 10 45 4.8 12.9 0.05 0.33 0.33 82 1009.2
20260506150701 10 45 3.2 8.0 0.05 0.33 0.33 84 1009.2
20260506145657 10 45 4.8 14.5 0.03 0.33 0.33 87 1009.2
20260506144637 10 90 1.6 14.5 0.05 0.33 0.33 91 1009.2
20260506143624 10 113 1.6 4.8 0.05 0.33 0.33 90 1009.2
20260506142605 10 45 3.2 14.5 0.05 0.30 0.30 89 1009.2
20260506141547 10 113 0.0 14.5 0.05 0.30 0.30 90 1009.2
20260506140528 10 113 1.6 6.4 0.08 0.30 0.30 89 1009.2
20260506135516 10 113 1.6 6.4 0.05 0.28 0.28 88 1009.2
20260506134441 10 113 3.2 16.1 0.08 0.28 0.28 87 1009.2
20260506125328 9 68 0.0 1.6 0.05 0.20 0.20 90 1009.2
20260506124257 10 68 0.0 1.6 0.05 0.18 0.18 89 1009.1
20260506123226 10 68 0.0 1.6 0.05 0.18 0.18 87 1009.0
20260506122156 10 68 0.0 3.2 0.03 0.15 0.15 85 1009.0
20260506121135 10 68 1.6 4.8 0.00 0.15 0.15 83 1008.9
20260506120113 10 45 3.2 8.0 0.03 0.15 0.15 81 1008.8
20260506115108 10 45 3.2 8.0 0.03 0.15 0.15 82 1008.8
20260506114049 10 45 3.2 8.0 0.05 0.15 0.15 83 1008.8
20260506113032 9 45 3.2 9.7 0.05 0.15 0.15 84 1008.8
20260506110950 9 45 3.2 12.9 0.05 0.13 0.13 85 1008.8
20260506105912 9 45 3.2 8.0 0.05 0.13 0.13 85 1008.9
20260506104852 10 68 3.2 9.7 0.05 0.10 0.10 85 1008.9
20260506102822 10 45 4.8 11.3 0.05 0.08 0.08 82 1008.9
20260506101749 10 68 4.8 9.7 0.05 0.08 0.08 84 1008.9
20260506100723 10 45 4.8 9.7 0.05 0.05 0.05 85 1008.8
20260506094648 9 68 3.2 9.7 0.05 0.05 0.05 85 1008.8
20260506091530 9 45 4.8 11.3 0.03 0.03 0.03 81 1008.9
20260506090512 9 45 6.4 17.7 0.00 0.00 0.00 79 1008.8
20260506085513 10 68 6.4 16.1 0.00 0.00 0.00 79 1008.8
20260506082445 10 45 8.0 17.7 0.00 0.00 0.00 75 1008.6
20260506081435 10 45 6.4 16.1 0.00 0.00 0.00 76 1008.5
20260506080420 10 68 6.4 14.5 0.00 0.00 0.00 76 1008.4
20260506073324 9 45 6.4 16.1 0.00 0.00 0.00 76 1008.3
20260506072307 9 45 6.4 16.1 0.00 0.00 0.00 75 1008.3
20260506071256 9 45 6.4 17.7 0.00 0.00 0.00 74 1008.3
20260506070230 9 45 8.0 17.7 0.00 0.00 0.00 73 1008.4
20260506062026 9 45 6.4 14.5 0.00 0.00 0.00 72 1008.2
20260506061006 9 45 6.4 14.5 0.00 0.00 0.00 72 1008.1
20260506050747 9 45 6.4 14.5 0.00 0.08 0.00 74 1008.1
20260506044716 8 45 6.4 16.1 0.00 0.13 0.00 74 1008.2
20260506043643 9 45 4.8 9.7 0.00 0.15 0.00 75 1008.3
20260506042624 9 45 4.8 11.3 0.00 0.15 0.00 74 1008.3
20260506041611 9 45 6.4 14.5 0.00 0.18 0.00 75 1008.3
20260506040609 9 68 4.8 12.9 0.00 0.23 0.00 75 1008.3
20260506034537 9 45 6.4 14.5 0.00 0.30 0.00 73 1008.2
20260506033513 9 45 6.4 16.1 0.00 0.33 0.00 72 1008.2
20260506032448 9 68 6.4 16.1 0.00 0.33 0.00 71 1008.3
20260506031422 9 45 4.8 12.9 0.00 0.33 0.00 73 1008.4
20260506030401 9 45 4.8 11.3 0.00 0.36 0.00 75 1008.5
20260506025336 9 68 4.8 11.3 0.00 0.36 0.00 75 1008.7
20260506023248 9 68 3.2 8.0 0.00 0.38 0.00 75 1008.8
20260506022221 9 45 4.8 14.5 0.00 0.38 0.00 74 1008.9
20260506021157 9 68 4.8 11.3 0.00 0.38 0.00 73 1008.9
20260506015110 10 68 4.8 6.4 0.00 0.41 0.00 70 1009.1
20260506014045 10 68 4.8 14.5 0.00 0.41 0.00 68 1009.3
20260506013017 10 68 6.4 12.9 0.00 0.41 0.00 69 1009.2
20260506005941 10 68 6.4 17.7 0.00 0.41 0.00 71 1009.4
20260506004917 10 45 6.4 17.7 0.00 0.43 0.00 71 1009.4
20260506002820 10 68 6.4 17.7 0.00 0.43 0.00 72 1009.6
20260506000743 10 45 4.8 12.9 0.00 0.43 0.00 76 1009.7
20260505235740 10 45 4.8 11.3 0.00 0.43 0.00 79 1009.7
20260505234706 10 45 4.8 8.0 0.00 0.43 0.00 81 1009.8
20260505232637 10 45 4.8 14.5 0.00 0.43 0.00 83 1009.8
20260505230608 10 45 4.8 11.3 0.00 0.43 0.00 82 1009.8
20260505224535 10 45 6.4 14.5 0.00 0.43 0.00 81 1009.9
20260505223518 10 45 6.4 14.5 0.00 0.43 0.00 81 1009.9
20260505222455 10 45 6.4 16.1 0.00 0.43 0.00 80 1009.9
20260505221431 10 45 6.4 14.5 0.00 0.43 0.00 79 1010.0
20260505220357 10 68 6.4 11.3 0.00 0.43 0.00 78 1010.0
20260505215333 10 45 6.4 16.1 0.00 0.43 0.43 77 1009.8
20260505214306 10 68 4.8 9.7 0.00 0.43 0.43 77 1009.9
20260505213232 10 45 4.8 11.3 0.00 0.43 0.43 77 1010.1
20260505212215 10 45 3.2 8.0 0.00 0.43 0.43 77 1010.1
20260505211152 11 68 3.2 6.4 0.00 0.43 0.43 77 1010.1
20260505210136 11 45 3.2 6.4 0.00 0.43 0.43 77 1010.2
20260505205115 11 45 3.2 8.0 0.00 0.43 0.43 78 1010.2
20260505201953 11 68 3.2 6.4 0.00 0.43 0.43 80 1010.1
20260505200936 11 68 3.2 6.4 0.00 0.43 0.43 80 1010.1
20260505195930 11 45 3.2 8.0 0.00 0.43 0.43 79 1010.0
20260505194910 11 45 3.2 9.7 0.00 0.43 0.43 80 1010.0
20260505191801 11 45 0.0 3.2 0.00 0.43 0.43 83 1009.8
20260505190734 11 45 0.0 4.8 0.00 0.43 0.43 82 1009.8
20260505185713 12 23 1.6 8.0 0.00 0.43 0.43 81 1009.8
20260505184640 12 68 3.2 8.0 0.00 0.43 0.43 80 1009.7
20260505183605 12 68 4.8 8.0 0.00 0.43 0.43 79 1009.6